O3B FM18
Last updated on Wed Jun 24 2026 00:03:25 GMT+0000 (Coordinated Universal Time)
1 44115U 19020D 26173.66256406 -.00000022 00000+0 00000+0 0 9994
2 44115 0.0525 357.8656 0002772 93.6935 268.4711 5.00115390131921
Next 0 passes for location: London (51.5072 / 0.1276)
No passes found over London.